User: anonymous   Login
Location: Unspecified
(0.0000°N, 0.0000°E)
Time: 05:05:52
(UTC+02:00)
Language:

ARIANE DEB (SPELDA) - Orbit

View from above orbital plane
View from above orbital plane
View from above satellite
View from above satellite

Ground track
Ground track

The orbit data is extracted from the following two-line orbital elements,

1 27402U 02015D   15211.41981630  .00002802  00000-0  24684-2 0  9993
2 27402 003.6431 066.5019 7105816 070.6065 162.0414 02.47253670116971
Epoch (UTC): 30 July 2015 10:04:32
Eccentricity: 0.7105816
inclination: 3.6431°
perigee height: 308 km
apogee height: 33138 km
right ascension of ascending node: 66.5019°
argument of perigee: 70.6065°
revolutions per day: 2.47253670
mean anomaly at epoch: 162.0414°
orbit number at epoch: 11697

The dashed part of the orbit path shows where the satellite is in the earth's shadow,  

DLR